Regional Weather Roundup
Issued by NWS

Home | Current Version | Previous Version | Text Only | Print | Product List | Glossary On
Versions: 1 2 3 4 5 6 7 8 9 10 11 12 13 14 15 16 17 18 19 20 21 22 23 24 25 26 27 28 29 30 31 32 33 34 35 36 37 38 39 40 41 42 43 44 45 46 47 48 49 50
000
ASUS45 KCYS 221910
RWRWY

WYOMING REGIONAL WEATHER ROUNDUP
NATIONAL WEATHER SERVICE CHEYENNE WY
1200 PM MST MON DEC 22 2014

NOTE:  "FAIR" INDICATES FEW OR NO CLOUDS BELOW 12,000 FEET
WITH NO SIGNIFICANT WEATHER AND/OR OBSTRUCTIONS TO VISIBILITY.

WYZ001-222000-
YELLOWSTONE NATIONAL PARK

CITY           SKY/WX    TMP DP  RH WIND       PRES   REMARKS
LK YELLOWSTONE   N/A     22  14  71 CALM      29.87S
W YELLOWSTONE  NOT AVBL

$$
WYZ002>013-054>058-071-098>099-222000-
NORTHERN WYOMING

CITY           SKY/WX    TMP DP  RH WIND       PRES   REMARKS
JACKSON        PTSUNNY   30  19  64 W13       29.87R WCI  20
CODY           FAIR      30  28  93 NE13      29.81R WCI  20
GREYBULL       CLOUDY    33  31  92 NW17      29.81F WCI  22
WORLAND        PTSUNNY   33  28  81 NW3       29.81S
SHERIDAN       CLOUDY    37  24  59 NW30G39   29.75R WCI  24
BUFFALO        FAIR      36  19  50 N30G41    29.72R WCI  23
GILLETTE       CLOUDY    36  24  62 NW25G33   29.66S WCI  24
HULETT           N/A    N/A N/A N/A MISG        N/A
NEWCASTLE      FAIR      34  27  75 NW28G33   29.62S WCI  20

$$
WYZ014>020-022>026-101>103-222000-
CENTRAL WYOMING

CITY           SKY/WX    TMP DP  RH WIND       PRES   REMARKS
BIG PINEY      MIX PCPN  30  21  69 N23       29.85F WCI  17
PINEDALE       LGT SNOW  27  21  80 NW29G37   29.84S VSB 1   WCI  11
DUBOIS         NOT AVBL
LANDER         CLOUDY    33  22  63 W5        29.80S WCI  29
RIVERTON       FAIR      26  22  84 SW8       29.80F WCI  18
CASPER         FAIR      31  23  72 W15       29.73F WCI  20
DOUGLAS        FAIR      35  25  66 W17       29.70F WCI  25

$$
WYZ021-027>030-104>119-222000-
SOUTHERN WYOMING

CITY           SKY/WX    TMP DP  RH WIND       PRES   REMARKS
EVANSTON       CLOUDY    33  26  75 NW22G30   29.93S WCI  21
KEMMERER       CLOUDY    30  27  86 W23       29.88S FOG     WCI  17
FORT BRIDGER   LGT SNOW  32  32  99 NW18G24   29.92F WCI  20
ROCK SPRINGS   LGT SNOW  29  22  75 NW28G35   29.81F WCI  14
DIXON          CLOUDY    33  25  73 W18G24    29.81S WCI  22
RAWLINS        FLURRIES  30  22  72 W23G31    29.75R WCI  17
SARATOGA       CLOUDY    30  23  74 NW21G26   29.74F WCI  17
LARAMIE        SNOW      23  21  92 NW17G25   29.67S VSB 1/4 WCI   9
CHEYENNE       CLOUDY    30  20  66 NW15G24   29.67F WCI  19
TORRINGTON     FAIR     N/A N/A N/A NW29G38   29.64F
PINE BLUFFS    MOCLDY    32  27  80 NW17      29.66F WCI  21

$$


USA.gov is the U.S. government's official web portal to all federal, state and local government web resources and services.